Home > Time Zones > World Clock > Weather > Egypt > Cairo > Past weeks

Flag for Egypt Weather past 2 weeks in Cairo, Egypt

Now
93 °F

Clear.


Feels Like: 99 °F
Forecast: 79 / 103 °F
Wind: 9 mph from North

Location: Cairo Airport

Current Time: Aug 3, 2015 at 7:18:32 PM

Latest Report: Aug 3, 2015 at 7:00 PM


Visibility: 10 mi

Pressure: 29.77 "Hg

Humidity: 47%

Dew point: 70 °F

Location of CairoLocation

Historic Weather in Cairo — Graph

°F

Cairo temperature yesterday

Maximum temperature yesterday: 97 °F (at 2:00 PM)
Minimum temperature yesterday: 79 °F (at 2:30 AM)
Average temperature yesterday: 87 °F

Past Weeks' High & Low Weather Summary

 TemperatureHumidityPressure
High106 °F (Jul 24, 1:00 PM)100% (Jul 25, 7:00 AM)29.86 "Hg (Jul 25, 7:00 AM)
Low73 °F (Jul 20, 4:30 AM)9% (Jul 24, 1:00 PM)29.68 "Hg (Jul 20, 2:00 PM)
Average87 °F51%29.74 "Hg
* Reported Jul 19 6:00 PM — Aug 3 6:00 PM, Cairo, Weather by CustomWeather, © 2015

Note: Actual official high and low records may vary slightly from our data, if they occured in-between our weather recording intervals... More about our weather records

Advertising

Cairo weather history for previous 24 hours

 ConditionsComfort  
Time TempWeatherWind HumidityBarometerVisibility
6:00 PM
Mon, Aug 3
95 °FSunny.9 mph44%29.77 "Hg10 mi
5:30 PM97 °FSunny.12 mph39%29.77 "Hg10 mi
5:00 PM97 °FSunny.12 mph34%29.77 "Hg10 mi
4:30 PM99 °FSunny.12 mph29%29.77 "Hg10 mi
4:00 PM99 °FSunny.12 mph29%29.77 "Hg10 mi
3:30 PM99 °FSunny.7 mph31%29.74 "Hg10 mi
3:00 PM99 °FSunny.7 mph33%29.77 "Hg10 mi
2:30 PM99 °FSunny.7 mph33%29.77 "Hg10 mi
2:00 PM99 °FSunny.12 mph33%29.77 "Hg10 mi
1:30 PM97 °FSunny.8 mph37%29.77 "Hg10 mi
1:00 PM97 °FSunny.7 mph39%29.77 "Hg10 mi
12:30 PM97 °FSunny.5 mph34%29.77 "Hg10 mi
11:30 AM93 °FSunny.7 mph44%29.80 "Hg10 mi
11:00 AM91 °FSunny.3 mph52%29.80 "Hg10 mi
10:30 AM91 °FSunny.6 mph49%29.80 "Hg10 mi
10:00 AM88 °FSunny.6 mph59%29.80 "Hg10 mi
9:30 AM86 °FClear.6 mph66%29.80 "Hg4 mi
9:00 AM84 °FClear.6 mph70%29.80 "Hg4 mi
8:30 AM84 °FFog.6 mph74%29.80 "Hg2 mi
8:00 AM84 °FFog.6 mph79%29.80 "Hg2 mi
7:30 AM82 °FFog.5 mph79%29.80 "Hg2 mi
7:00 AM81 °FFog.5 mph84%29.80 "Hg2 mi
6:30 AM81 °FFog.5 mph84%29.80 "Hg2 mi
5:30 AM79 °FFog.5 mph89%29.80 "Hg2 mi
5:00 AM81 °FFog.7 mph94%29.80 "Hg2 mi
4:30 AM81 °FFog.2 mph89%29.77 "Hg2 mi
4:00 AM81 °FFog.2 mph89%29.80 "Hg2 mi
3:30 AM81 °FFog.6 mph89%29.77 "Hg2 mi
3:00 AM81 °FClear.6 mph89%29.80 "Hg4 mi
2:30 AM81 °FClear.5 mph89%29.80 "Hg4 mi
2:00 AM81 °FClear.5 mph89%29.80 "Hg10 mi
1:30 AM81 °FClear.5 mph89%29.80 "Hg10 mi
1:00 AM82 °FClear.5 mph84%29.80 "Hg10 mi
12:30 AM82 °FClear.6 mph84%29.80 "Hg10 mi
12:00 AM82 °FClear.6 mph84%29.80 "Hg10 mi
11:30 PM
Sun, Aug 2
82 °FClear.8 mph79%29.83 "Hg10 mi
11:00 PM84 °FClear.8 mph74%29.83 "Hg10 mi
10:30 PM84 °FClear.9 mph74%29.80 "Hg10 mi
10:00 PM84 °FClear.9 mph74%29.80 "Hg10 mi
9:30 PM86 °FClear.9 mph70%29.80 "Hg10 mi
9:00 PM88 °FClear.9 mph59%29.80 "Hg10 mi
8:30 PM90 °FClear.9 mph52%29.80 "Hg10 mi
8:00 PM90 °FClear.10 mph52%29.77 "Hg10 mi
7:30 PM91 °FClear.9 mph46%29.77 "Hg10 mi
7:00 PM91 °FClear.9 mph52%29.77 "Hg10 mi
Weather by CustomWeather, © 2015

See weather overviewHow to use our weather pages